When you browse on this site, cookies collect data to enhance your experience and personalize the content and advertising you see.
Visit our Privacy Policy to learn more. By continuing to use the site, you agree to this use of cookies and data.
  • en Suisse
  • Liste des pays
  • À 7 jours
  • Température de l'eau
  • Carte satellitaire
  • Carte météo
  • Widgets météo
  • user-avatar
    Se connecter

    Météo par heure à Tiranё

    Ce jour, 23 Mars, Samedi

    Heure Température Précipitation Vent Pression Humidité
    00:00 +12°C° 0 mm 3 m/s 759 mmHg 48%
    01:00 +12°C° 0 mm 3 m/s 759 mmHg 48%
    02:00 +12°C° 0 mm 3 m/s 759 mmHg 48%
    03:00 +11°C° 0 mm 3 m/s 759 mmHg 48%
    04:00 +11°C° 0 mm 3 m/s 758 mmHg 47%
    05:00 +11°C° 0 mm 3 m/s 758 mmHg 48%
    06:00 +12°C° 0 mm 3 m/s 758 mmHg 49%
    07:00 +12°C° 0 mm 3 m/s 758 mmHg 50%
    08:00 +16°C° 0 mm 3 m/s 758 mmHg 43%
    09:00 +18°C° 0 mm 2 m/s 758 mmHg 36%
    10:00 +20°C° 0 mm 2 m/s 758 mmHg 30%
    11:00 +21°C° 0 mm 3 m/s 758 mmHg 29%
    12:00 +22°C° 0 mm 4 m/s 757 mmHg 28%
    13:00 +23°C° 0 mm 4 m/s 757 mmHg 27%
    14:00 +22°C° 0 mm 5 m/s 757 mmHg 32%
    15:00 +22°C° 0 mm 6 m/s 756 mmHg 36%
    16:00 +21°C° 0 mm 7 m/s 756 mmHg 40%
    17:00 +18°C° 0 mm 7 m/s 756 mmHg 48%
    18:00 +16°C° 0 mm 6 m/s 756 mmHg 55%
    19:00 +14°C° 0 mm 6 m/s 757 mmHg 62%
    20:00 +14°C° 0 mm 5 m/s 757 mmHg 61%
    21:00 +14°C° 0 mm 4 m/s 757 mmHg 59%
    22:00 +13°C° 0 mm 3 m/s 757 mmHg 58%
    23:00 +13°C° 0 mm 3 m/s 758 mmHg 56%

    Demain, 24 Mars, Dimanche

    Heure Température Précipitation Vent Pression Humidité
    00:00 +13°C° 0 mm 3 m/s 758 mmHg 55%
    01:00 +14°C° 0 mm 2 m/s 758 mmHg 54%
    02:00 +13°C° 0 mm 2 m/s 758 mmHg 55%
    03:00 +13°C° 0 mm 2 m/s 758 mmHg 56%
    04:00 +13°C° 0 mm 2 m/s 758 mmHg 56%
    05:00 +13°C° 0 mm 2 m/s 758 mmHg 57%
    06:00 +14°C° 0 mm 2 m/s 758 mmHg 58%
    07:00 +14°C° 0 mm 2 m/s 758 mmHg 58%
    08:00 +16°C° 0 mm 2 m/s 758 mmHg 50%
    09:00 +20°C° 0 mm 1 m/s 758 mmHg 42%
    10:00 +22°C° 0 mm 1 m/s 758 mmHg 34%
    11:00 +23°C° 0 mm 2 m/s 757 mmHg 34%
    12:00 +22°C° 0 mm 3 m/s 757 mmHg 33%
    13:00 +23°C° 0 mm 4 m/s 757 mmHg 33%
    14:00 +22°C° 0 mm 4 m/s 757 mmHg 36%
    15:00 +21°C° 0 mm 5 m/s 756 mmHg 40%
    16:00 +20°C° 0 mm 5 m/s 756 mmHg 43%
    17:00 +18°C° 0 mm 4 m/s 756 mmHg 51%
    18:00 +16°C° 0 mm 3 m/s 756 mmHg 58%
    19:00 +13°C° 0 mm 3 m/s 756 mmHg 65%
    20:00 +14°C° 0 mm 2 m/s 756 mmHg 66%
    21:00 +14°C° 0 mm 1 m/s 756 mmHg 66%
    22:00 +12°C° 0 mm 0 m/s 756 mmHg 67%
    23:00 +12°C° 0 mm 0 m/s 756 mmHg 67%

    Après-demain, 25 Mars, Lundi

    Heure Température Précipitation Vent Pression Humidité
    00:00 +12°C° 0 mm 0 m/s 756 mmHg 68%
    01:00 +13°C° 0 mm 1 m/s 756 mmHg 68%
    02:00 +12°C° 0 mm 1 m/s 755 mmHg 68%
    03:00 +12°C° 0 mm 1 m/s 755 mmHg 68%
    04:00 +12°C° 0 mm 1 m/s 755 mmHg 69%
    05:00 +12°C° 0 mm 1 m/s 755 mmHg 67%
    06:00 +13°C° 0 mm 1 m/s 755 mmHg 64%
    07:00 +14°C° 0 mm 1 m/s 755 mmHg 62%
    08:00 +16°C° 0 mm 1 m/s 754 mmHg 57%
    09:00 +17°C° 0 mm 2 m/s 754 mmHg 52%
    10:00 +19°C° 0 mm 2 m/s 754 mmHg 47%
    11:00 +19°C° 0 mm 2 m/s 753 mmHg 47%
    12:00 +20°C° 0 mm 3 m/s 753 mmHg 46%
    13:00 +20°C° 0 mm 3 m/s 752 mmHg 46%
    14:00 +20°C° 0 mm 3 m/s 752 mmHg 49%
    15:00 +19°C° 0 mm 3 m/s 752 mmHg 51%
    16:00 +19°C° 0 mm 3 m/s 751 mmHg 54%
    17:00 +17°C° 0 mm 2 m/s 751 mmHg 62%
    18:00 +15°C° 0 mm 1 m/s 751 mmHg 71%
    19:00 +12°C° 0 mm 0 m/s 751 mmHg 79%
    20:00 +12°C° 0 mm 0 m/s 751 mmHg 79%
    21:00 +13°C° 0 mm 1 m/s 751 mmHg 79%
    22:00 +12°C° 0 mm 1 m/s 751 mmHg 79%
    23:00 +12°C° 0 mm 1 m/s 751 mmHg 77%

    26 Mars, Mardi

    Heure Température Précipitation Vent Pression Humidité
    00:00 +12°C° 0 mm 1 m/s 751 mmHg 76%
    01:00 +12°C° 0 mm 1 m/s 751 mmHg 74%
    02:00 +10°C° 0 mm 2 m/s 751 mmHg 72%
    03:00 +10°C° 0 mm 2 m/s 751 mmHg 70%
    04:00 +10°C° 0 mm 2 m/s 751 mmHg 68%
    05:00 +12°C° 0 mm 2 m/s 751 mmHg 66%
    06:00 +12°C° 0 mm 2 m/s 751 mmHg 64%
    07:00 +13°C° 0 mm 2 m/s 751 mmHg 62%
    08:00 +15°C° 0 mm 1 m/s 751 mmHg 55%
    09:00 +18°C° 0 mm 1 m/s 752 mmHg 48%
    10:00 +20°C° 0 mm 1 m/s 752 mmHg 41%
    11:00 +19°C° 0 mm 2 m/s 752 mmHg 40%
    12:00 +20°C° 0 mm 3 m/s 752 mmHg 40%
    13:00 +20°C° 0 mm 4 m/s 752 mmHg 40%
    14:00 +20°C° 0 mm 4 m/s 752 mmHg 43%
    15:00 +19°C° 0 mm 4 m/s 752 mmHg 46%
    16:00 +18°C° 0 mm 4 m/s 752 mmHg 50%
    17:00 +17°C° 0 mm 4 m/s 753 mmHg 55%
    18:00 +14°C° 0 mm 3 m/s 754 mmHg 61%
    19:00 +13°C° 0 mm 3 m/s 754 mmHg 66%
    20:00 +12°C° 0.1 mm 3 m/s 754 mmHg 64%
    21:00 +12°C° 0.1 mm 4 m/s 755 mmHg 62%
    22:00 +12°C° 0.1 mm 4 m/s 755 mmHg 60%
    23:00 +10°C° 0 mm 5 m/s 755 mmHg 56%

    27 Mars, Mercredi

    Heure Température Précipitation Vent Pression Humidité
    00:00 +10°C° 0 mm 5 m/s 756 mmHg 52%
    01:00 +9°C° 0 mm 5 m/s 756 mmHg 48%
    02:00 +9°C° 0 mm 5 m/s 756 mmHg 48%
    03:00 +9°C° 0 mm 5 m/s 756 mmHg 49%
    04:00 +9°C° 0 mm 5 m/s 756 mmHg 50%
    05:00 +9°C° 0 mm 5 m/s 756 mmHg 50%
    06:00 +9°C° 0 mm 5 m/s 756 mmHg 50%
    07:00 +10°C° 0 mm 5 m/s 756 mmHg 50%
    08:00 +12°C° 0 mm 4 m/s 756 mmHg 47%
    09:00 +13°C° 0 mm 4 m/s 756 mmHg 44%
    10:00 +16°C° 0 mm 3 m/s 757 mmHg 41%
    11:00 +16°C° 0.1 mm 3 m/s 756 mmHg 42%
    12:00 +16°C° 0.1 mm 2 m/s 756 mmHg 43%
    13:00 +16°C° 0.1 mm 2 m/s 756 mmHg 44%
    14:00 +15°C° 0.2 mm 2 m/s 756 mmHg 47%
    15:00 +15°C° 0.2 mm 2 m/s 756 mmHg 50%
    16:00 +14°C° 0.2 mm 2 m/s 756 mmHg 53%
    17:00 +13°C° 0 mm 2 m/s 756 mmHg 56%
    18:00 +12°C° 0 mm 2 m/s 756 mmHg 58%
    19:00 +10°C° 0 mm 3 m/s 756 mmHg 61%
    20:00 +10°C° 0 mm 3 m/s 757 mmHg 62%
    21:00 +9°C° 0 mm 3 m/s 757 mmHg 63%
    22:00 +8°C° 0 mm 4 m/s 757 mmHg 65%
    23:00 +8°C° 0 mm 4 m/s 757 mmHg 65%

    28 Mars, Jeudi

    Heure Température Précipitation Vent Pression Humidité
    00:00 +7°C° 0 mm 4 m/s 757 mmHg 66%
    01:00 +7°C° 0 mm 4 m/s 757 mmHg 66%
    02:00 +7°C° 0 mm 4 m/s 757 mmHg 66%
    03:00 +7°C° 0 mm 4 m/s 757 mmHg 66%
    04:00 +7°C° 0 mm 4 m/s 757 mmHg 66%
    05:00 +7°C° 0 mm 4 m/s 757 mmHg 64%
    06:00 +8°C° 0 mm 4 m/s 758 mmHg 63%
    07:00 +10°C° 0 mm 4 m/s 758 mmHg 61%
    08:00 +12°C° 0 mm 4 m/s 758 mmHg 55%
    09:00 +13°C° 0 mm 4 m/s 758 mmHg 48%
    10:00 +15°C° 0 mm 4 m/s 758 mmHg 42%
    11:00 +16°C° 0 mm 3 m/s 758 mmHg 42%
    12:00 +16°C° 0 mm 3 m/s 758 mmHg 42%
    13:00 +16°C° 0 mm 2 m/s 758 mmHg 42%
    14:00 +16°C° 0.1 mm 2 m/s 758 mmHg 43%
    15:00 +16°C° 0.1 mm 2 m/s 758 mmHg 44%
    16:00 +16°C° 0.1 mm 2 m/s 758 mmHg 45%
    17:00 +14°C° 0 mm 2 m/s 759 mmHg 49%
    18:00 +12°C° 0 mm 3 m/s 759 mmHg 53%
    19:00 +11°C° 0 mm 3 m/s 759 mmHg 57%
    20:00 +10°C° 0 mm 3 m/s 759 mmHg 59%
    21:00 +9°C° 0 mm 3 m/s 760 mmHg 62%
    22:00 +8°C° 0 mm 4 m/s 760 mmHg 64%
    23:00 +8°C° 0 mm 4 m/s 760 mmHg 65%
    Voir plus